Location: Little Chesterford
(52.0500°N, 0.1833°E)
Time: 11:59:32
(UTC+00:00)

Cosmos 2366 rocket - Pass Details

Date: 26 September 2023
Orbit: 955 x 996 km, 82.9° (Epoch: 10 December)

Event Time Altitude Azimuth Distance (km) Brightness Sun altitude
Rises 18:13:01 0° 351° (N) 3,675 7.2 -4.5°
Reaches altitude 10° 18:15:36 10° 355° (N) 2,718 6.5 -4.9°
Maximum altitude 18:21:43 58° 75° (ENE) 1,118 4.1 -5.8°
Drops below altitude 10° 18:27:46 10° 154° (SSE) 2,683 6.0 -6.8°
Sets 18:30:17 0° 158° (SSE) 3,623 6.7 -7.2°
